Time,TemperatureF,DewpointF,PressureIn,WindDirection,WindDirectionDegrees,WindSpeedMPH,WindSpeedGustMPH,Humidity,HourlyPrecipIn,Conditions,Clouds,dailyrainin,SolarRadiationWatts/m^2,SoftwareType,DateUTC
2013-01-12 00:22:00,21.0,15.0,-100.00,WNW,292,17.0,29.0,78,0.00,,,0.01,0.000000,,2013-01-12 06:22:00,
2013-01-12 00:32:00,21.0,15.0,-100.00,WNW,292,17.0,29.0,78,0.00,,,0.01,0.000000,,2013-01-12 06:32:00,
2013-01-12 00:42:00,21.0,15.0,-100.00,WNW,292,17.0,29.0,78,0.00,,,0.01,0.000000,,2013-01-12 06:42:00,
2013-01-12 00:52:00,21.0,15.0,-100.00,WNW,292,17.0,29.0,78,0.00,,,0.01,0.000000,,2013-01-12 06:52:00,
2013-01-12 01:22:00,20.0,13.0,-100.00,WNW,295,19.0,26.0,74,0.00,,,0.01,0.000000,,2013-01-12 07:22:00,
2013-01-12 01:32:00,20.0,13.0,-100.00,WNW,295,19.0,26.0,74,0.00,,,0.01,0.000000,,2013-01-12 07:32:00,
2013-01-12 01:42:00,20.0,13.0,-100.00,WNW,295,19.0,26.0,74,0.00,,,0.01,0.000000,,2013-01-12 07:42:00,
2013-01-12 01:52:00,20.0,13.0,-100.00,WNW,295,19.0,26.0,74,0.00,,,0.01,0.000000,,2013-01-12 07:52:00,
2013-01-12 02:22:00,19.0,12.0,-100.00,WNW,301,21.0,29.0,73,0.00,,,0.01,0.000000,,2013-01-12 08:22:00,
2013-01-12 02:32:00,19.0,12.0,-100.00,WNW,301,21.0,29.0,73,0.00,,,0.01,0.000000,,2013-01-12 08:32:00,
2013-01-12 02:42:00,19.0,12.0,-100.00,WNW,301,21.0,29.0,73,0.00,,,0.01,0.000000,,2013-01-12 08:42:00,
2013-01-12 02:52:00,19.0,12.0,-100.00,WNW,301,21.0,29.0,73,0.00,,,0.01,0.000000,,2013-01-12 08:52:00,
2013-01-12 03:22:00,18.0,12.0,-100.00,WNW,300,15.0,26.0,76,0.00,,,0.01,0.000000,,2013-01-12 09:22:00,
2013-01-12 03:32:00,18.0,12.0,-100.00,WNW,300,15.0,26.0,76,0.00,,,0.01,0.000000,,2013-01-12 09:32:00,
2013-01-12 03:42:00,18.0,12.0,-100.00,WNW,300,15.0,26.0,76,0.00,,,0.01,0.000000,,2013-01-12 09:42:00,
2013-01-12 03:52:00,18.0,12.0,-100.00,WNW,300,15.0,26.0,76,0.00,,,0.01,0.000000,,2013-01-12 09:52:00,
2013-01-12 04:22:00,17.0,10.0,-100.00,WNW,303,12.0,22.0,75,0.00,,,0.01,0.000000,,2013-01-12 10:22:00,
2013-01-12 04:32:00,17.0,10.0,-100.00,WNW,303,12.0,22.0,75,0.00,,,0.01,0.000000,,2013-01-12 10:32:00,
2013-01-12 04:42:00,17.0,10.0,-100.00,WNW,303,12.0,22.0,75,0.00,,,0.01,0.000000,,2013-01-12 10:42:00,
2013-01-12 04:52:00,17.0,10.0,-100.00,WNW,303,12.0,22.0,75,0.00,,,0.01,0.000000,,2013-01-12 10:52:00,
2013-01-12 05:22:00,15.0,10.0,-100.00,WNW,300,7.0,16.0,80,0.00,,,0.01,0.000000,,2013-01-12 11:22:00,
2013-01-12 05:32:00,15.0,10.0,-100.00,WNW,300,7.0,16.0,80,0.00,,,0.01,0.000000,,2013-01-12 11:32:00,
2013-01-12 05:42:00,15.0,10.0,-100.00,WNW,300,7.0,16.0,80,0.00,,,0.01,0.000000,,2013-01-12 11:42:00,
2013-01-12 05:52:00,15.0,10.0,-100.00,WNW,300,7.0,16.0,80,0.00,,,0.01,0.000000,,2013-01-12 11:52:00,
2013-01-12 06:22:00,14.0,9.0,-100.00,NW,305,9.0,15.0,80,0.00,,,0.01,0.000000,,2013-01-12 12:22:00,
2013-01-12 06:32:00,14.0,9.0,-100.00,NW,305,9.0,15.0,80,0.00,,,0.01,0.000000,,2013-01-12 12:32:00,
2013-01-12 06:42:00,14.0,9.0,-100.00,NW,305,9.0,15.0,80,0.00,,,0.01,0.000000,,2013-01-12 12:42:00,
2013-01-12 06:52:00,14.0,9.0,-100.00,NW,305,9.0,15.0,80,0.00,,,0.01,0.000000,,2013-01-12 12:52:00,
2013-01-12 07:22:00,13.0,7.0,-100.00,NNW,328,6.0,19.0,75,0.00,,,0.01,0.000000,,2013-01-12 13:22:00,
2013-01-12 07:33:00,13.0,7.0,-100.00,NNW,328,6.0,19.0,75,0.00,,,0.01,0.000000,,2013-01-12 13:33:00,
2013-01-12 07:42:00,13.0,7.0,-100.00,NNW,328,6.0,19.0,75,0.00,,,0.01,0.000000,,2013-01-12 13:42:00,
2013-01-12 07:53:00,13.0,7.0,-100.00,NNW,328,6.0,19.0,75,0.00,,,0.01,0.000000,,2013-01-12 13:53:00,
2013-01-12 08:22:00,10.0,6.0,-100.00,WNW,290,4.0,10.0,82,0.00,,,0.01,1.000000,,2013-01-12 14:22:00,
2013-01-12 08:33:00,10.0,6.0,-100.00,WNW,290,4.0,10.0,82,0.00,,,0.01,1.000000,,2013-01-12 14:33:00,
2013-01-12 08:43:00,10.0,6.0,-100.00,WNW,290,4.0,10.0,82,0.00,,,0.01,1.000000,,2013-01-12 14:43:00,
2013-01-12 08:53:00,10.0,6.0,-100.00,WNW,290,4.0,10.0,82,0.00,,,0.01,1.000000,,2013-01-12 14:53:00,
2013-01-12 09:22:00,14.0,9.0,-100.00,South,170,2.0,9.0,80,0.00,,,0.01,43.000000,,2013-01-12 15:22:00,
2013-01-12 09:33:00,14.0,9.0,-100.00,South,170,2.0,9.0,80,0.00,,,0.01,43.000000,,2013-01-12 15:33:00,
2013-01-12 09:43:00,14.0,9.0,-100.00,South,170,2.0,9.0,80,0.00,,,0.01,43.000000,,2013-01-12 15:43:00,
2013-01-12 09:53:00,14.0,9.0,-100.00,South,170,2.0,9.0,80,0.00,,,0.01,43.000000,,2013-01-12 15:53:00,
2013-01-12 10:23:00,17.0,9.0,-100.00,WNW,303,8.0,11.0,70,0.00,,,0.01,242.000000,,2013-01-12 16:23:00,
2013-01-12 10:33:00,17.0,9.0,-100.00,WNW,303,8.0,11.0,70,0.00,,,0.01,242.000000,,2013-01-12 16:33:00,
2013-01-12 10:42:00,17.0,9.0,-100.00,WNW,303,8.0,11.0,70,0.00,,,0.01,242.000000,,2013-01-12 16:42:00,
2013-01-12 10:53:00,17.0,9.0,-100.00,WNW,303,8.0,11.0,70,0.00,,,0.01,242.000000,,2013-01-12 16:53:00,
2013-01-12 11:22:00,17.0,7.0,-100.00,WNW,298,11.0,16.0,65,0.00,,,0.01,407.000000,,2013-01-12 17:22:00,
2013-01-12 11:33:00,17.0,7.0,-100.00,WNW,298,11.0,16.0,65,0.00,,,0.01,407.000000,,2013-01-12 17:33:00,
2013-01-12 11:43:00,17.0,7.0,-100.00,WNW,298,11.0,16.0,65,0.00,,,0.01,407.000000,,2013-01-12 17:43:00,
2013-01-12 11:53:00,17.0,7.0,-100.00,WNW,298,11.0,16.0,65,0.00,,,0.01,407.000000,,2013-01-12 17:53:00,
2013-01-12 12:23:00,19.0,8.0,-100.00,NW,304,11.0,18.0,61,0.00,,,0.01,514.000000,,2013-01-12 18:23:00,
2013-01-12 12:33:00,19.0,8.0,-100.00,NW,304,11.0,18.0,61,0.00,,,0.01,514.000000,,2013-01-12 18:33:00,
2013-01-12 12:42:00,19.0,8.0,-100.00,NW,304,11.0,18.0,61,0.00,,,0.01,514.000000,,2013-01-12 18:42:00,
2013-01-12 12:52:00,19.0,8.0,-100.00,NW,304,11.0,18.0,61,0.00,,,0.01,514.000000,,2013-01-12 18:52:00,
2013-01-12 13:23:00,19.0,6.0,-100.00,WNW,298,17.0,23.0,57,0.00,,,0.01,588.000000,,2013-01-12 19:23:00,
2013-01-12 13:33:00,19.0,6.0,-100.00,WNW,298,17.0,23.0,57,0.00,,,0.01,588.000000,,2013-01-12 19:33:00,
2013-01-12 13:43:00,19.0,6.0,-100.00,WNW,298,17.0,23.0,57,0.00,,,0.01,588.000000,,2013-01-12 19:43:00,
2013-01-12 13:52:00,19.0,6.0,-100.00,WNW,298,17.0,23.0,57,0.00,,,0.01,588.000000,,2013-01-12 19:52:00,
2013-01-12 14:22:00,19.0,6.0,-100.00,NW,308,18.0,25.0,56,0.00,,,0.01,568.000000,,2013-01-12 20:22:00,
2013-01-12 14:33:00,19.0,6.0,-100.00,NW,308,18.0,25.0,56,0.00,,,0.01,568.000000,,2013-01-12 20:33:00,
2013-01-12 14:42:00,19.0,6.0,-100.00,NW,308,18.0,25.0,56,0.00,,,0.01,568.000000,,2013-01-12 20:42:00,
2013-01-12 14:53:00,19.0,6.0,-100.00,NW,308,18.0,25.0,56,0.00,,,0.01,568.000000,,2013-01-12 20:53:00,
2013-01-12 15:22:00,19.0,6.0,-100.00,NW,313,18.0,26.0,57,0.00,,,0.01,429.000000,,2013-01-12 21:22:00,
2013-01-12 15:33:00,19.0,6.0,-100.00,NW,313,18.0,26.0,57,0.00,,,0.01,429.000000,,2013-01-12 21:33:00,
2013-01-12 15:43:00,19.0,6.0,-100.00,NW,313,18.0,26.0,57,0.00,,,0.01,429.000000,,2013-01-12 21:43:00,
2013-01-12 15:52:00,19.0,6.0,-100.00,NW,313,18.0,26.0,57,0.00,,,0.01,429.000000,,2013-01-12 21:52:00,
2013-01-12 16:23:00,17.0,6.0,-100.00,NW,318,15.0,26.0,60,0.00,,,0.01,184.000000,,2013-01-12 22:23:00,
2013-01-12 16:33:00,17.0,6.0,-100.00,NW,318,15.0,26.0,60,0.00,,,0.01,184.000000,,2013-01-12 22:33:00,
2013-01-12 16:43:00,17.0,6.0,-100.00,NW,318,15.0,26.0,60,0.00,,,0.01,184.000000,,2013-01-12 22:43:00,
2013-01-12 16:52:00,17.0,6.0,-100.00,NW,318,15.0,26.0,60,0.00,,,0.01,184.000000,,2013-01-12 22:52:00,
2013-01-12 18:23:00,16.0,6.0,-100.00,NNW,330,13.0,22.0,63,-99.99,,,0.01,11.000000,,2013-01-13 00:23:00,
2013-01-12 18:33:00,16.0,6.0,-100.00,NNW,330,13.0,22.0,63,-99.99,,,0.01,11.000000,,2013-01-13 00:33:00,
2013-01-12 18:43:00,16.0,6.0,-100.00,NNW,330,13.0,22.0,63,-99.99,,,0.01,11.000000,,2013-01-13 00:43:00,
2013-01-12 18:52:00,16.0,6.0,-100.00,NNW,330,13.0,22.0,63,-99.99,,,0.01,11.000000,,2013-01-13 00:52:00,
2013-01-12 19:22:00,14.0,5.0,-100.00,NW,322,13.0,19.0,66,0.00,,,0.01,0.000000,,2013-01-13 01:22:00,
2013-01-12 19:33:00,14.0,5.0,-100.00,NW,322,13.0,19.0,66,0.00,,,0.01,0.000000,,2013-01-13 01:33:00,
2013-01-12 19:43:00,14.0,5.0,-100.00,NW,322,13.0,19.0,66,0.00,,,0.01,0.000000,,2013-01-13 01:43:00,
2013-01-12 19:52:00,14.0,5.0,-100.00,NW,322,13.0,19.0,66,0.00,,,0.01,0.000000,,2013-01-13 01:52:00,
2013-01-12 20:22:00,12.0,3.0,-100.00,NW,326,11.0,19.0,67,0.00,,,0.00,0.000000,,2013-01-13 02:22:00,
2013-01-12 20:32:00,12.0,3.0,-100.00,NW,326,11.0,19.0,67,0.00,,,0.00,0.000000,,2013-01-13 02:32:00,
2013-01-12 20:43:00,12.0,3.0,-100.00,NW,326,11.0,19.0,67,0.00,,,0.00,0.000000,,2013-01-13 02:43:00,
2013-01-12 20:52:00,12.0,3.0,-100.00,NW,326,11.0,19.0,67,0.00,,,0.00,0.000000,,2013-01-13 02:52:00,
2013-01-12 21:22:00,10.0,3.0,-100.00,NNW,331,9.0,13.0,73,0.00,,,0.00,0.000000,,2013-01-13 03:22:00,
2013-01-12 21:33:00,10.0,3.0,-100.00,NNW,331,9.0,13.0,73,0.00,,,0.00,0.000000,,2013-01-13 03:33:00,
2013-01-12 21:43:00,10.0,3.0,-100.00,NNW,331,9.0,13.0,73,0.00,,,0.00,0.000000,,2013-01-13 03:43:00,
2013-01-12 21:52:00,10.0,3.0,-100.00,NNW,331,9.0,13.0,73,0.00,,,0.00,0.000000,,2013-01-13 03:52:00,
2013-01-12 22:22:00,8.0,3.0,-100.00,NW,325,7.0,12.0,80,0.00,,,0.00,0.000000,,2013-01-13 04:22:00,
2013-01-12 22:33:00,8.0,3.0,-100.00,NW,325,7.0,12.0,80,0.00,,,0.00,0.000000,,2013-01-13 04:33:00,
2013-01-12 22:42:00,8.0,3.0,-100.00,NW,325,7.0,12.0,80,0.00,,,0.00,0.000000,,2013-01-13 04:42:00,
2013-01-12 22:52:00,8.0,3.0,-100.00,NW,325,7.0,12.0,80,0.00,,,0.00,0.000000,,2013-01-13 04:52:00,
2013-01-12 23:22:00,8.0,3.0,-100.00,NW,324,7.0,12.0,80,0.00,,,0.00,0.000000,,2013-01-13 05:22:00,
2013-01-12 23:32:00,8.0,3.0,-100.00,NW,324,7.0,12.0,80,0.00,,,0.00,0.000000,,2013-01-13 05:32:00,
2013-01-12 23:42:00,8.0,3.0,-100.00,NW,324,7.0,12.0,80,0.00,,,0.00,0.000000,,2013-01-13 05:42:00,
2013-01-12 23:52:00,8.0,3.0,-100.00,NW,324,7.0,12.0,80,0.00,,,0.00,0.000000,,2013-01-13 05:52:00,